This is the latest recevied weather packets stored in our database for station/object KA1AL. If no packets are shown the sender has not sent any weather packets the latest 10 day(s).
| Time | Temp. | Humidity | Pressure | Rain* | Wind** | Luminosity | Snow |
|---|---|---|---|---|---|---|---|
| 1778177163 | 11.67° C | 70% | 1003 hPa | 0 mm | - | 177 W/m² | - |
| 1778176860 | 11.67° C | 71% | 1002.8 hPa | 0 mm | - | 194 W/m² | - |
| 1778176556 | 11.67° C | 68% | 1002.7 hPa | 0 mm | - | 112 W/m² | - |
| 1778176254 | 12.22° C | 67% | 1002.7 hPa | 0 mm | - | 86 W/m² | - |
| 1778175951 | 12.22° C | 65% | 1002.7 hPa | 0 mm | - | 128 W/m² | - |
| 1778175649 | 12.22° C | 66% | 1002.4 hPa | 0 mm | - | 208 W/m² | - |
| 1778175345 | 12.78° C | 67% | 1002.9 hPa | 0 mm | - | 357 W/m² | - |
| 1778175042 | 12.78° C | 69% | 1002.7 hPa | 0 mm | - | 276 W/m² | - |
| 1778174738 | 12.78° C | 66% | 1002.6 hPa | 0 mm | - | 282 W/m² | - |
| 1778174436 | 12.22° C | 67% | 1002.9 hPa | 0 mm | - | 281 W/m² | - |
| 1778174131 | 11.67° C | 67% | 1002.8 hPa | 0 mm | - | 252 W/m² | - |
| 1778173828 | 12.22° C | 65% | 1003.2 hPa | 0 mm | - | 296 W/m² | - |
| 1778173525 | 11.67° C | 69% | 1003 hPa | 0 mm | - | 740 W/m² | - |
| 1778173222 | 11.67° C | 69% | 1003.2 hPa | 0 mm | - | 268 W/m² | - |
| 1778172917 | 11.67° C | 68% | 1003 hPa | 0 mm | - | 201 W/m² | - |
| 1778172614 | 11.67° C | 67% | 1003.2 hPa | 0 mm | - | 147 W/m² | - |
| 1778172310 | 11.67° C | 68% | 1003.3 hPa | 0 mm | - | 134 W/m² | - |
| 1778172008 | 12.22° C | 66% | 1003.3 hPa | 0 mm | - | 120 W/m² | - |
| 1778171705 | 12.22° C | 64% | 1003.1 hPa | 0 mm | - | 136 W/m² | - |
| 1778171402 | 12.22° C | 63% | 1003.3 hPa | 0 mm | - | 184 W/m² | - |
| 1778171097 | 12.22° C | 66% | 1003.4 hPa | 0 mm | - | 265 W/m² | - |
| 1778170794 | 12.22° C | 64% | 1003.1 hPa | 0 mm | - | 231 W/m² | - |
| 1778170490 | 12.22° C | 65% | 1003.2 hPa | 0 mm | - | 217 W/m² | - |
| 1778170188 | 12.22° C | 64% | 1003.6 hPa | 0 mm | - | 191 W/m² | - |
| 1778169883 | 12.22° C | 65% | 1003.5 hPa | 0 mm | - | 234 W/m² | - |
* Rain latest hour (hover to see other rain measurements)
** Current wind speed in m/s (hover to see current wind gust speed)